Time,TemperatureF,DewpointF,PressureIn,WindDirection,WindDirectionDegrees,WindSpeedMPH,WindSpeedGustMPH,Humidity,HourlyPrecipIn,Conditions,Clouds,dailyrainin,SoftwareType,DateUTC
2013-01-20 00:02:00,-4.0,-9.0,-100.00,NNW,340,15.0,19.0,74,0.00,,,0.02,,2013-01-20 06:02:00,
2013-01-20 00:12:00,-4.0,-9.0,-100.00,NNW,340,12.0,21.0,74,0.00,,,0.02,,2013-01-20 06:12:00,
2013-01-20 00:22:00,-4.0,-9.0,-100.00,North,0,9.0,17.0,74,0.00,,,0.02,,2013-01-20 06:22:00,
2013-01-20 00:33:00,-4.0,-9.0,-100.00,NNW,330,12.0,14.0,74,0.00,,,0.02,,2013-01-20 06:33:00,
2013-01-20 00:42:00,-4.0,-9.0,-100.00,NNW,330,14.0,17.0,74,0.00,,,0.02,,2013-01-20 06:42:00,
2013-01-20 00:52:00,-4.0,-9.0,-100.00,NNW,330,16.0,19.0,74,0.00,,,0.02,,2013-01-20 06:52:00,
2013-01-20 01:02:00,-4.0,-9.0,-100.00,NNW,335,14.0,17.0,74,0.00,,,0.02,,2013-01-20 07:02:00,
2013-01-20 01:12:00,-4.0,-9.0,-100.00,NW,320,11.0,17.0,74,0.00,,,0.02,,2013-01-20 07:12:00,
2013-01-20 01:22:00,-4.0,-11.0,-100.00,NNW,340,16.0,21.0,73,0.00,,,0.02,,2013-01-20 07:22:00,
2013-01-20 01:32:00,-4.0,-11.0,-100.00,NNW,330,14.0,18.0,73,0.00,,,0.02,,2013-01-20 07:32:00,
2013-01-20 01:42:00,-4.0,-11.0,-100.00,NW,325,12.0,17.0,73,0.00,,,0.02,,2013-01-20 07:42:00,
2013-01-20 01:52:00,-4.0,-11.0,-100.00,NW,315,13.0,16.0,74,0.00,,,0.02,,2013-01-20 07:52:00,
2013-01-20 02:02:00,-4.0,-11.0,-100.00,NNW,330,12.0,16.0,74,0.00,,,0.02,,2013-01-20 08:02:00,
2013-01-20 02:12:00,-4.0,-11.0,-100.00,NNW,330,13.0,19.0,74,0.00,,,0.02,,2013-01-20 08:12:00,
2013-01-20 02:22:00,-5.0,-11.0,-100.00,NNW,330,14.0,21.0,73,0.00,,,0.02,,2013-01-20 08:22:00,
2013-01-20 02:32:00,-5.0,-11.0,-100.00,NNW,335,14.0,20.0,73,0.00,,,0.02,,2013-01-20 08:32:00,
2013-01-20 02:42:00,-5.0,-11.0,-100.00,NNW,330,14.0,17.0,74,0.00,,,0.02,,2013-01-20 08:42:00,
2013-01-20 02:52:00,-5.0,-11.0,-100.00,NNW,335,12.0,17.0,74,0.00,,,0.02,,2013-01-20 08:52:00,
2013-01-20 03:02:00,-5.0,-11.0,-100.00,NNW,330,11.0,16.0,74,0.00,,,0.02,,2013-01-20 09:02:00,
2013-01-20 03:12:00,-5.0,-11.0,-100.00,NW,320,9.0,14.0,75,0.00,,,0.02,,2013-01-20 09:12:00,
2013-01-20 03:22:00,-5.0,-11.0,-100.00,NNW,330,11.0,14.0,75,0.00,,,0.02,,2013-01-20 09:22:00,
2013-01-20 03:33:00,-5.0,-11.0,-100.00,NW,320,11.0,13.0,75,0.00,,,0.02,,2013-01-20 09:33:00,
2013-01-20 03:42:00,-5.0,-11.0,-100.00,NW,320,9.0,12.0,75,0.00,,,0.02,,2013-01-20 09:42:00,
2013-01-20 03:52:00,-5.0,-11.0,-100.00,NW,320,11.0,12.0,75,0.00,,,0.02,,2013-01-20 09:52:00,
2013-01-20 04:02:00,-5.0,-11.0,-100.00,NW,325,11.0,16.0,75,0.00,,,0.02,,2013-01-20 10:02:00,
2013-01-20 04:12:00,-5.0,-11.0,-100.00,NW,320,14.0,17.0,75,0.00,,,0.02,,2013-01-20 10:12:00,
2013-01-20 04:22:00,-5.0,-11.0,-100.00,NW,325,11.0,17.0,75,0.00,,,0.02,,2013-01-20 10:22:00,
2013-01-20 04:32:00,-5.0,-11.0,-100.00,NNW,335,11.0,14.0,75,0.00,,,0.02,,2013-01-20 10:32:00,
2013-01-20 04:42:00,-5.0,-11.0,-100.00,NNW,335,9.0,12.0,75,0.00,,,0.02,,2013-01-20 10:42:00,
2013-01-20 04:52:00,-5.0,-11.0,-100.00,NNW,340,7.0,11.0,75,0.00,,,0.02,,2013-01-20 10:52:00,
2013-01-20 05:02:00,-5.0,-11.0,-100.00,NNW,340,7.0,9.0,75,0.00,,,0.02,,2013-01-20 11:02:00,
2013-01-20 05:12:00,-5.0,-11.0,-100.00,NW,325,9.0,12.0,75,0.00,,,0.02,,2013-01-20 11:12:00,
2013-01-20 05:22:00,-5.0,-11.0,-100.00,NW,325,9.0,12.0,75,0.00,,,0.02,,2013-01-20 11:22:00,
2013-01-20 05:32:00,-5.0,-11.0,-100.00,NW,315,9.0,12.0,75,0.00,,,0.02,,2013-01-20 11:32:00,
2013-01-20 05:42:00,-5.0,-11.0,-100.00,NW,320,9.0,12.0,75,0.00,,,0.02,,2013-01-20 11:42:00,
2013-01-20 05:53:00,-5.0,-11.0,-100.00,NW,320,7.0,9.0,75,0.00,,,0.02,,2013-01-20 11:53:00,
2013-01-20 06:03:00,-5.0,-11.0,-100.00,NW,310,8.0,10.0,75,0.00,,,0.02,,2013-01-20 12:03:00,
2013-01-20 06:12:00,-5.0,-11.0,-100.00,NW,305,6.0,11.0,75,0.00,,,0.02,,2013-01-20 12:12:00,
2013-01-20 06:22:00,-5.0,-11.0,-100.00,NW,315,6.0,10.0,75,0.00,,,0.02,,2013-01-20 12:22:00,
2013-01-20 06:33:00,-5.0,-11.0,-100.00,NW,320,9.0,12.0,75,0.00,,,0.02,,2013-01-20 12:33:00,
2013-01-20 06:43:00,-5.0,-11.0,-100.00,NW,315,7.0,9.0,75,0.00,,,0.02,,2013-01-20 12:43:00,
2013-01-20 06:52:00,-5.0,-11.0,-100.00,NW,310,9.0,12.0,75,0.00,,,0.02,,2013-01-20 12:52:00,
2013-01-20 07:02:00,-5.0,-11.0,-100.00,NW,315,7.0,11.0,75,0.00,,,0.02,,2013-01-20 13:02:00,
2013-01-20 07:12:00,-5.0,-11.0,-100.00,NW,310,8.0,10.0,75,0.00,,,0.02,,2013-01-20 13:12:00,
2013-01-20 07:23:00,-5.0,-11.0,-100.00,NW,315,7.0,11.0,75,0.00,,,0.02,,2013-01-20 13:23:00,
2013-01-20 07:33:00,-5.0,-11.0,-100.00,NW,315,9.0,12.0,75,0.00,,,0.02,,2013-01-20 13:33:00,
2013-01-20 07:42:00,-5.0,-11.0,-100.00,NW,320,10.0,12.0,75,0.00,,,0.02,,2013-01-20 13:42:00,
2013-01-20 07:52:00,-5.0,-11.0,-100.00,NW,315,9.0,13.0,75,0.00,,,0.02,,2013-01-20 13:52:00,
2013-01-20 08:02:00,-5.0,-11.0,-100.00,NW,315,7.0,12.0,75,0.00,,,0.02,,2013-01-20 14:02:00,
2013-01-20 08:12:00,-4.0,-9.0,-100.00,NW,310,7.0,12.0,75,0.00,,,0.02,,2013-01-20 14:12:00,
2013-01-20 08:22:00,-4.0,-9.0,-100.00,NW,305,9.0,11.0,76,0.00,,,0.02,,2013-01-20 14:22:00,
2013-01-20 08:32:00,-4.0,-9.0,-100.00,WNW,300,7.0,11.0,76,0.00,,,0.02,,2013-01-20 14:32:00,
2013-01-20 08:42:00,-5.0,-9.0,-100.00,NW,305,6.0,12.0,76,0.00,,,0.02,,2013-01-20 14:42:00,
2013-01-20 08:52:00,-4.0,-9.0,-100.00,NW,310,9.0,12.0,76,0.00,,,0.02,,2013-01-20 14:52:00,
2013-01-20 09:03:00,-4.0,-9.0,-100.00,NW,305,9.0,13.0,76,0.00,,,0.02,,2013-01-20 15:03:00,
2013-01-20 09:12:00,-4.0,-9.0,-100.00,NW,305,10.0,13.0,76,0.00,,,0.02,,2013-01-20 15:12:00,
2013-01-20 09:23:00,-3.0,-9.0,-100.00,NW,305,7.0,12.0,75,0.00,,,0.02,,2013-01-20 15:23:00,
2013-01-20 09:33:00,-3.0,-9.0,-100.00,NW,305,7.0,9.0,75,0.00,,,0.02,,2013-01-20 15:33:00,
2013-01-20 09:42:00,-2.0,-8.0,-100.00,NW,310,9.0,12.0,74,0.00,,,0.02,,2013-01-20 15:42:00,
2013-01-20 09:52:00,-3.0,-9.0,-100.00,WNW,300,9.0,14.0,74,0.00,,,0.02,,2013-01-20 15:52:00,
2013-01-20 10:02:00,-3.0,-9.0,-100.00,NW,310,10.0,13.0,74,0.00,,,0.02,,2013-01-20 16:02:00,
2013-01-20 10:12:00,-2.0,-9.0,-100.00,NW,310,11.0,15.0,74,0.00,,,0.02,,2013-01-20 16:12:00,
2013-01-20 10:23:00,-2.0,-8.0,-100.00,NW,315,10.0,16.0,74,0.00,,,0.02,,2013-01-20 16:23:00,
2013-01-20 10:33:00,-2.0,-8.0,-100.00,WNW,295,9.0,12.0,74,0.00,,,0.02,,2013-01-20 16:33:00,
2013-01-20 10:42:00,-2.0,-8.0,-100.00,NW,310,7.0,12.0,74,0.00,,,0.02,,2013-01-20 16:42:00,
2013-01-20 10:52:00,-1.0,-8.0,-100.00,NW,310,10.0,13.0,73,0.00,,,0.02,,2013-01-20 16:52:00,
2013-01-20 11:03:00,-1.0,-8.0,-100.00,WNW,300,11.0,14.0,72,0.00,,,0.02,,2013-01-20 17:03:00,
2013-01-20 11:12:00,0.0,-8.0,-100.00,WNW,295,11.0,16.0,72,0.00,,,0.02,,2013-01-20 17:12:00,
2013-01-20 11:22:00,1.0,-6.0,-100.00,NW,305,12.0,15.0,71,0.00,,,0.02,,2013-01-20 17:22:00,
2013-01-20 11:33:00,1.0,-6.0,-100.00,NW,310,12.0,17.0,70,0.00,,,0.02,,2013-01-20 17:33:00,
2013-01-20 11:42:00,1.0,-6.0,-100.00,WNW,300,12.0,17.0,70,0.00,,,0.02,,2013-01-20 17:42:00,
2013-01-20 11:52:00,2.0,-6.0,-100.00,NW,305,10.0,17.0,70,0.00,,,0.02,,2013-01-20 17:52:00,
2013-01-20 12:02:00,2.0,-6.0,-100.00,NW,305,10.0,17.0,70,0.00,,,0.02,,2013-01-20 18:02:00,
2013-01-20 12:12:00,2.0,-6.0,-100.00,WNW,300,14.0,19.0,70,0.00,,,0.02,,2013-01-20 18:12:00,
2013-01-20 12:23:00,1.0,-6.0,-100.00,WNW,285,14.0,17.0,70,0.00,,,0.02,,2013-01-20 18:23:00,
2013-01-20 12:33:00,2.0,-6.0,-100.00,West,280,12.0,17.0,70,0.00,,,0.02,,2013-01-20 18:33:00,
2013-01-20 12:42:00,3.0,-4.0,-100.00,NW,305,14.0,21.0,70,0.00,,,0.02,,2013-01-20 18:42:00,
2013-01-20 12:53:00,3.0,-4.0,-100.00,NW,315,15.0,20.0,69,0.00,,,0.02,,2013-01-20 18:53:00,
2013-01-20 13:02:00,3.0,-4.0,-100.00,WNW,300,14.0,21.0,70,0.00,,,0.02,,2013-01-20 19:02:00,
2013-01-20 13:12:00,3.0,-4.0,-100.00,WNW,295,14.0,19.0,70,0.00,,,0.02,,2013-01-20 19:12:00,
2013-01-20 13:22:00,3.0,-4.0,-100.00,NW,320,16.0,20.0,70,0.00,,,0.02,,2013-01-20 19:22:00,
2013-01-20 13:33:00,4.0,-4.0,-100.00,NW,310,14.0,20.0,71,0.00,,,0.01,,2013-01-20 19:33:00,
2013-01-20 13:42:00,4.0,-2.0,-100.00,NW,310,12.0,19.0,72,0.00,,,0.01,,2013-01-20 19:42:00,
2013-01-20 13:52:00,5.0,-2.0,-100.00,NW,305,14.0,21.0,73,0.00,,,0.01,,2013-01-20 19:52:00,
2013-01-20 14:03:00,5.0,-2.0,-100.00,WNW,300,13.0,20.0,71,0.00,,,0.01,,2013-01-20 20:03:00,
2013-01-20 14:12:00,3.0,-4.0,-100.00,NW,325,19.0,27.0,71,0.00,,,0.01,,2013-01-20 20:12:00,
2013-01-20 14:22:00,3.0,-4.0,-100.00,NW,320,21.0,26.0,70,0.00,,,0.01,,2013-01-20 20:22:00,
2013-01-20 14:33:00,3.0,-6.0,-100.00,NW,320,21.0,26.0,67,0.00,,,0.01,,2013-01-20 20:33:00,
2013-01-20 14:42:00,3.0,-6.0,-100.00,NW,315,20.0,30.0,68,0.00,,,0.01,,2013-01-20 20:42:00,
2013-01-20 14:53:00,2.0,-6.0,-100.00,NW,325,19.0,26.0,70,0.00,,,0.01,,2013-01-20 20:53:00,
2013-01-20 15:03:00,2.0,-4.0,-100.00,NW,325,18.0,24.0,73,0.00,,,0.01,,2013-01-20 21:03:00,
2013-01-20 15:13:00,2.0,-6.0,-100.00,NW,325,19.0,26.0,70,0.00,,,0.01,,2013-01-20 21:13:00,
2013-01-20 15:23:00,2.0,-6.0,-100.00,NW,325,17.0,26.0,67,0.00,,,0.01,,2013-01-20 21:23:00,
2013-01-20 15:33:00,2.0,-6.0,-100.00,NNW,335,21.0,26.0,68,0.00,,,0.01,,2013-01-20 21:33:00,
2013-01-20 15:43:00,1.0,-8.0,-100.00,NW,315,24.0,30.0,65,0.00,,,0.01,,2013-01-20 21:43:00,
2013-01-20 15:52:00,1.0,-9.0,-100.00,NW,325,19.0,29.0,63,0.00,,,0.01,,2013-01-20 21:52:00,
2013-01-20 16:03:00,0.0,-9.0,-100.00,NNW,335,22.0,27.0,63,0.00,,,0.01,,2013-01-20 22:03:00,
2013-01-20 16:12:00,1.0,-9.0,-100.00,NW,320,21.0,26.0,63,0.00,,,0.01,,2013-01-20 22:12:00,
2013-01-20 16:22:00,0.0,-9.0,-100.00,NNW,335,21.0,27.0,65,0.00,,,0.01,,2013-01-20 22:22:00,
2013-01-20 16:33:00,0.0,-8.0,-100.00,NW,325,18.0,24.0,67,0.00,,,0.01,,2013-01-20 22:33:00,
2013-01-20 16:43:00,1.0,-8.0,-100.00,NW,325,15.0,22.0,68,0.00,,,0.01,,2013-01-20 22:43:00,
2013-01-20 16:52:00,0.0,-9.0,-100.00,NNW,330,20.0,26.0,65,0.00,,,0.01,,2013-01-20 22:52:00,
2013-01-20 17:03:00,-1.0,-9.0,-100.00,NNW,330,22.0,29.0,64,0.00,,,0.01,,2013-01-20 23:03:00,
2013-01-20 17:12:00,-1.0,-9.0,-100.00,NNW,330,21.0,29.0,64,0.00,,,0.01,,2013-01-20 23:12:00,
2013-01-20 17:23:00,-1.0,-9.0,-100.00,NW,325,17.0,27.0,66,0.00,,,0.01,,2013-01-20 23:23:00,
2013-01-20 17:33:00,-2.0,-11.0,-100.00,NNW,330,22.0,29.0,65,0.00,,,0.01,,2013-01-20 23:33:00,
2013-01-20 17:42:00,-2.0,-11.0,-100.00,NW,325,20.0,25.0,65,0.00,,,0.01,,2013-01-20 23:42:00,
2013-01-20 17:52:00,-3.0,-11.0,-100.00,NNW,330,16.0,24.0,65,0.00,,,0.00,,2013-01-20 23:52:00,
2013-01-20 18:03:00,-3.0,-11.0,-100.00,NNW,335,17.0,23.0,66,0.00,,,0.00,,2013-01-21 00:03:00,
2013-01-20 18:13:00,-3.0,-11.0,-100.00,NNW,330,17.0,24.0,67,0.00,,,0.00,,2013-01-21 00:13:00,
2013-01-20 18:22:00,-4.0,-11.0,-100.00,NNW,340,21.0,26.0,67,0.00,,,0.00,,2013-01-21 00:22:00,
2013-01-20 18:33:00,-4.0,-11.0,-100.00,NNW,330,20.0,24.0,67,0.00,,,0.00,,2013-01-21 00:33:00,
2013-01-20 18:42:00,-4.0,-11.0,-100.00,NW,320,16.0,26.0,69,0.00,,,0.00,,2013-01-21 00:42:00,
2013-01-20 18:53:00,-4.0,-11.0,-100.00,NW,325,16.0,22.0,70,0.00,,,0.00,,2013-01-21 00:53:00,
2013-01-20 19:03:00,-5.0,-11.0,-100.00,NNW,335,14.0,22.0,71,0.00,,,0.00,,2013-01-21 01:03:00,
2013-01-20 19:12:00,-5.0,-11.0,-100.00,NW,325,14.0,19.0,71,0.00,,,0.00,,2013-01-21 01:12:00,
2013-01-20 19:23:00,-5.0,-11.0,-100.00,NNW,330,16.0,20.0,72,0.00,,,0.00,,2013-01-21 01:23:00,
2013-01-20 19:32:00,-5.0,-11.0,-100.00,NW,325,12.0,18.0,73,0.00,,,0.00,,2013-01-21 01:32:00,
2013-01-20 19:43:00,-5.0,-11.0,-100.00,NW,325,13.0,18.0,73,0.00,,,0.00,,2013-01-21 01:43:00,
2013-01-20 19:52:00,-6.0,-13.0,-100.00,NW,325,12.0,16.0,73,0.00,,,0.00,,2013-01-21 01:52:00,
2013-01-20 20:03:00,-6.0,-13.0,-100.00,NNW,335,16.0,22.0,72,0.00,,,0.00,,2013-01-21 02:03:00,
2013-01-20 20:12:00,-6.0,-13.0,-100.00,NW,325,12.0,21.0,72,0.00,,,0.00,,2013-01-21 02:12:00,
2013-01-20 20:23:00,-6.0,-13.0,-100.00,NNW,330,12.0,17.0,72,0.00,,,0.00,,2013-01-21 02:23:00,
2013-01-20 20:33:00,-6.0,-13.0,-100.00,NNW,330,12.0,21.0,71,0.00,,,0.00,,2013-01-21 02:33:00,
2013-01-20 20:43:00,-6.0,-13.0,-100.00,NNW,335,15.0,19.0,71,0.00,,,0.00,,2013-01-21 02:43:00,
2013-01-20 21:03:00,-6.0,-13.0,-100.00,NW,325,12.0,19.0,72,0.00,,,0.00,,2013-01-21 03:03:00,
2013-01-20 21:12:00,-7.0,-13.0,-100.00,NW,320,16.0,19.0,73,0.00,,,0.00,,2013-01-21 03:12:00,
2013-01-20 21:23:00,-7.0,-13.0,-100.00,NW,320,16.0,22.0,73,0.00,,,0.00,,2013-01-21 03:23:00,
2013-01-20 21:33:00,-7.0,-13.0,-100.00,NNW,330,21.0,27.0,72,0.00,,,0.00,,2013-01-21 03:33:00,
2013-01-20 21:43:00,-7.0,-15.0,-100.00,NNW,330,18.0,24.0,71,0.00,,,0.00,,2013-01-21 03:43:00,
2013-01-20 21:52:00,-7.0,-13.0,-100.00,NW,325,12.0,22.0,72,0.00,,,0.00,,2013-01-21 03:52:00,
2013-01-20 22:03:00,-7.0,-15.0,-100.00,NW,320,15.0,21.0,72,0.00,,,0.00,,2013-01-21 04:03:00,
2013-01-20 22:12:00,-8.0,-15.0,-100.00,NW,325,17.0,19.0,72,0.00,,,0.00,,2013-01-21 04:12:00,
2013-01-20 22:23:00,-8.0,-15.0,-100.00,NNW,330,17.0,23.0,72,0.00,,,0.00,,2013-01-21 04:23:00,
2013-01-20 22:32:00,-8.0,-15.0,-100.00,NW,320,19.0,24.0,71,0.00,,,0.00,,2013-01-21 04:32:00,
2013-01-20 22:42:00,-9.0,-15.0,-100.00,NW,320,21.0,26.0,71,0.00,,,0.00,,2013-01-21 04:42:00,
2013-01-20 22:52:00,-9.0,-15.0,-100.00,NW,320,18.0,24.0,72,0.00,,,0.00,,2013-01-21 04:52:00,
2013-01-20 23:03:00,-9.0,-15.0,-100.00,NW,315,15.0,22.0,73,0.00,,,0.00,,2013-01-21 05:03:00,
2013-01-20 23:12:00,-9.0,-15.0,-100.00,NW,315,19.0,24.0,73,0.00,,,0.00,,2013-01-21 05:12:00,
2013-01-20 23:22:00,-10.0,-15.0,-100.00,NW,320,18.0,24.0,74,0.00,,,0.00,,2013-01-21 05:22:00,
2013-01-20 23:33:00,-10.0,-15.0,-100.00,NW,315,16.0,22.0,75,0.00,,,0.00,,2013-01-21 05:33:00,
2013-01-20 23:42:00,-10.0,-15.0,-100.00,NW,325,17.0,21.0,75,0.00,,,0.00,,2013-01-21 05:42:00,
2013-01-20 23:52:00,-10.0,-17.0,-100.00,NW,325,16.0,21.0,75,0.00,,,0.00,,2013-01-21 05:52:00,